Tracking 19846 objects as of 18-Sep-2019
HD Live streaming from Space Station
objects crossing your sky now

HELLAS-SAT 2

Track HELLAS-SAT 2 now!
HELLAS-SAT 2 is classified as:


NORAD ID: 27811
Int'l Code: 2003-020A
Perigee: 35,782.6 km
Apogee: 35,805.0 km
Inclination: 1.3 °
Period: 1,436.1 minutes
Semi major axis: 42164 km
RCS: 15.8489 m2 (large)
Launch date: May 13, 2003
Source: Greece (GREC)
Launch site: AIR FORCE EASTERN TEST RANGE (AFETR)

30 Ku-band; television broadcasting services for the 2004 Summer Olympic Games in Athens.
aabbcc
Your satellite tracking list
Your tracking list is empty




NASA's NSSDC Master Catalog

Two Line Element Set (TLE):
1 27811U 03020A   19260.60551705 -.00000154 +00000-0 +00000-0 0  9992
2 27811 001.2682 095.2672 0002656 081.3378 302.4375 01.00271526018142
Source of the keplerian elements: AFSPC